When you browse on this site, cookies collect data to enhance your experience and personalize the content and advertising you see.
Visit our Privacy Policy to learn more. By continuing to use the site, you agree to this use of cookies and data.
  • In Romania
  • List of Countries
  • For 7 days
  • Water Temperature
  • Weather Map
  • Weather Widgets
  • user-avatar
    Login

    Hourly Weather Stepanakert

    Today, 21 August, Wednesday

    Time Temperature Precipitation Wind Pressure Humidity
    00:00 +23°C° 0 mm 2 mps 695 mmHg 31%
    01:00 +23°C° 0 mm 2 mps 695 mmHg 31%
    02:00 +21°C° 0 mm 2 mps 695 mmHg 31%
    03:00 +21°C° 0 mm 2 mps 695 mmHg 31%
    04:00 +21°C° 0 mm 2 mps 695 mmHg 32%
    05:00 +22°C° 0 mm 1 mps 695 mmHg 33%
    06:00 +22°C° 0 mm 1 mps 695 mmHg 34%
    07:00 +25°C° 0 mm 1 mps 695 mmHg 30%
    08:00 +27°C° 0 mm 2 mps 696 mmHg 26%
    09:00 +30°C° 0 mm 2 mps 696 mmHg 21%
    10:00 +31°C° 0 mm 2 mps 696 mmHg 20%
    11:00 +33°C° 0 mm 3 mps 695 mmHg 19%
    12:00 +34°C° 0 mm 3 mps 695 mmHg 18%
    13:00 +34°C° 0 mm 3 mps 695 mmHg 18%
    14:00 +35°C° 0 mm 3 mps 694 mmHg 18%
    15:00 +35°C° 0 mm 3 mps 694 mmHg 18%
    16:00 +34°C° 0 mm 3 mps 693 mmHg 21%
    17:00 +31°C° 0 mm 2 mps 693 mmHg 23%
    18:00 +30°C° 0 mm 1 mps 692 mmHg 25%
    19:00 +28°C° 0 mm 1 mps 692 mmHg 27%
    20:00 +26°C° 0 mm 1 mps 692 mmHg 28%
    21:00 +25°C° 0 mm 2 mps 692 mmHg 30%
    22:00 +24°C° 0 mm 2 mps 692 mmHg 30%
    23:00 +24°C° 0 mm 2 mps 692 mmHg 30%

    Tomorrow, 22 August, Thursday

    Time Temperature Precipitation Wind Pressure Humidity
    00:00 +24°C° 0 mm 2 mps 692 mmHg 30%
    01:00 +23°C° 0 mm 2 mps 692 mmHg 30%
    02:00 +23°C° 0 mm 2 mps 692 mmHg 30%
    03:00 +23°C° 0 mm 2 mps 692 mmHg 31%
    04:00 +23°C° 0 mm 2 mps 692 mmHg 31%
    05:00 +23°C° 0 mm 1 mps 692 mmHg 32%
    06:00 +23°C° 0 mm 1 mps 692 mmHg 33%
    07:00 +25°C° 0 mm 1 mps 692 mmHg 29%
    08:00 +27°C° 0 mm 2 mps 693 mmHg 25%
    09:00 +30°C° 0 mm 2 mps 693 mmHg 21%
    10:00 +31°C° 0 mm 2 mps 693 mmHg 20%
    11:00 +33°C° 0 mm 3 mps 692 mmHg 18%
    12:00 +34°C° 0 mm 3 mps 692 mmHg 17%
    13:00 +35°C° 0 mm 3 mps 692 mmHg 17%
    14:00 +35°C° 0 mm 4 mps 691 mmHg 17%
    15:00 +35°C° 0 mm 4 mps 691 mmHg 17%
    16:00 +34°C° 0 mm 3 mps 690 mmHg 19%
    17:00 +31°C° 0 mm 2 mps 690 mmHg 21%
    18:00 +30°C° 0 mm 2 mps 690 mmHg 24%
    19:00 +28°C° 0 mm 2 mps 690 mmHg 25%
    20:00 +26°C° 0 mm 1 mps 690 mmHg 27%
    21:00 +24°C° 0 mm 1 mps 691 mmHg 28%
    22:00 +24°C° 0 mm 1 mps 691 mmHg 28%
    23:00 +23°C° 0 mm 1 mps 691 mmHg 28%

    Day after tomorrow, 23 August, Friday

    Time Temperature Precipitation Wind Pressure Humidity
    00:00 +23°C° 0 mm 2 mps 691 mmHg 27%
    01:00 +23°C° 0 mm 2 mps 691 mmHg 27%
    02:00 +21°C° 0 mm 2 mps 691 mmHg 27%
    03:00 +21°C° 0 mm 2 mps 691 mmHg 27%
    04:00 +21°C° 0 mm 2 mps 691 mmHg 29%
    05:00 +21°C° 0 mm 2 mps 691 mmHg 30%
    06:00 +21°C° 0 mm 2 mps 692 mmHg 32%
    07:00 +25°C° 0 mm 2 mps 692 mmHg 29%
    08:00 +27°C° 0 mm 2 mps 692 mmHg 27%
    09:00 +29°C° 0 mm 2 mps 693 mmHg 24%
    10:00 +30°C° 0 mm 2 mps 693 mmHg 23%
    11:00 +31°C° 0 mm 3 mps 692 mmHg 22%
    12:00 +33°C° 0 mm 3 mps 692 mmHg 22%
    13:00 +34°C° 0 mm 3 mps 692 mmHg 21%
    14:00 +34°C° 0 mm 3 mps 691 mmHg 21%
    15:00 +35°C° 0 mm 4 mps 691 mmHg 21%
    16:00 +33°C° 0 mm 3 mps 691 mmHg 24%
    17:00 +31°C° 0 mm 2 mps 691 mmHg 27%
    18:00 +30°C° 0 mm 1 mps 691 mmHg 30%
    19:00 +28°C° 0 mm 1 mps 691 mmHg 31%
    20:00 +27°C° 0 mm 1 mps 691 mmHg 33%
    21:00 +25°C° 0 mm 2 mps 691 mmHg 35%
    22:00 +25°C° 0 mm 2 mps 691 mmHg 35%
    23:00 +24°C° 0 mm 2 mps 691 mmHg 36%

    24 August, Saturday

    Time Temperature Precipitation Wind Pressure Humidity
    00:00 +24°C° 0 mm 2 mps 691 mmHg 37%
    01:00 +23°C° 0 mm 2 mps 691 mmHg 38%
    02:00 +23°C° 0 mm 2 mps 691 mmHg 38%
    03:00 +23°C° 0 mm 2 mps 691 mmHg 39%
    04:00 +23°C° 0 mm 2 mps 691 mmHg 39%
    05:00 +23°C° 0 mm 2 mps 691 mmHg 40%
    06:00 +23°C° 0 mm 2 mps 692 mmHg 40%
    07:00 +25°C° 0 mm 2 mps 692 mmHg 36%
    08:00 +28°C° 0 mm 2 mps 693 mmHg 33%
    09:00 +30°C° 0 mm 2 mps 693 mmHg 29%
    10:00 +31°C° 0 mm 3 mps 693 mmHg 28%
    11:00 +33°C° 0 mm 3 mps 693 mmHg 27%
    12:00 +34°C° 0 mm 3 mps 693 mmHg 26%
    13:00 +34°C° 0 mm 3 mps 693 mmHg 26%
    14:00 +35°C° 0 mm 3 mps 693 mmHg 26%
    15:00 +35°C° 0 mm 3 mps 692 mmHg 26%
    16:00 +34°C° 0 mm 3 mps 692 mmHg 27%
    17:00 +33°C° 0 mm 3 mps 692 mmHg 28%
    18:00 +31°C° 0 mm 3 mps 692 mmHg 29%
    19:00 +29°C° 0 mm 3 mps 692 mmHg 32%
    20:00 +26°C° 0 mm 2 mps 693 mmHg 35%
    21:00 +24°C° 0 mm 1 mps 693 mmHg 38%
    22:00 +24°C° 0 mm 1 mps 693 mmHg 37%
    23:00 +24°C° 0 mm 1 mps 693 mmHg 36%

    25 August, Sunday

    Time Temperature Precipitation Wind Pressure Humidity
    00:00 +24°C° 0 mm 1 mps 693 mmHg 35%
    01:00 +23°C° 0 mm 1 mps 693 mmHg 35%
    02:00 +23°C° 0 mm 1 mps 693 mmHg 34%
    03:00 +22°C° 0 mm 1 mps 693 mmHg 33%
    04:00 +22°C° 0 mm 1 mps 693 mmHg 33%
    05:00 +22°C° 0 mm 1 mps 693 mmHg 33%
    06:00 +22°C° 0 mm 1 mps 693 mmHg 33%
    07:00 +25°C° 0 mm 1 mps 694 mmHg 29%
    08:00 +27°C° 0 mm 2 mps 694 mmHg 24%
    09:00 +30°C° 0 mm 2 mps 694 mmHg 19%
    10:00 +31°C° 0 mm 2 mps 694 mmHg 19%
    11:00 +33°C° 0 mm 3 mps 694 mmHg 18%
    12:00 +33°C° 0 mm 3 mps 694 mmHg 18%
    13:00 +34°C° 0 mm 4 mps 693 mmHg 19%
    14:00 +34°C° 0 mm 4 mps 693 mmHg 19%
    15:00 +34°C° 0 mm 4 mps 693 mmHg 20%
    16:00 +33°C° 0 mm 3 mps 693 mmHg 22%
    17:00 +31°C° 0 mm 3 mps 692 mmHg 25%
    18:00 +29°C° 0 mm 2 mps 692 mmHg 27%
    19:00 +28°C° 0 mm 2 mps 692 mmHg 28%
    20:00 +26°C° 0 mm 2 mps 693 mmHg 30%
    21:00 +25°C° 0 mm 1 mps 693 mmHg 31%
    22:00 +24°C° 0.1 mm 1 mps 693 mmHg 33%
    23:00 +23°C° 0.1 mm 2 mps 693 mmHg 36%

    26 August, Monday

    Time Temperature Precipitation Wind Pressure Humidity
    00:00 +23°C° 0.1 mm 2 mps 693 mmHg 38%
    01:00 +22°C° 0 mm 1 mps 692 mmHg 38%
    02:00 +22°C° 0 mm 1 mps 692 mmHg 39%
    03:00 +22°C° 0 mm 1 mps 692 mmHg 40%
    04:00 +22°C° 0 mm 1 mps 692 mmHg 39%
    05:00 +22°C° 0 mm 1 mps 692 mmHg 39%
    06:00 +22°C° 0 mm 1 mps 693 mmHg 38%
    07:00 +24°C° 0 mm 1 mps 693 mmHg 34%
    08:00 +27°C° 0 mm 2 mps 693 mmHg 29%
    09:00 +29°C° 0 mm 2 mps 694 mmHg 24%
    10:00 +30°C° 0 mm 2 mps 693 mmHg 23%
    11:00 +31°C° 0 mm 3 mps 693 mmHg 22%
    12:00 +33°C° 0 mm 3 mps 693 mmHg 20%
    13:00 +33°C° 0 mm 3 mps 693 mmHg 20%
    14:00 +33°C° 0 mm 3 mps 692 mmHg 20%
    15:00 +33°C° 0 mm 3 mps 692 mmHg 20%
    16:00 +31°C° 0 mm 2 mps 692 mmHg 23%
    17:00 +30°C° 0 mm 2 mps 692 mmHg 25%
    18:00 +28°C° 0 mm 1 mps 693 mmHg 28%
    19:00 +27°C° 0 mm 1 mps 693 mmHg 31%
    20:00 +25°C° 0 mm 1 mps 693 mmHg 33%
    21:00 +23°C° 0 mm 1 mps 694 mmHg 36%
    22:00 +22°C° 0 mm 1 mps 694 mmHg 38%
    23:00 +22°C° 0 mm 1 mps 694 mmHg 40%
    Show more